Date_and_time,latitude,longitude,wind_speed,RelWindDirFrom,WindDirFrom,air_pressure,air_temperature,relative_humidity,Temp,platform_speed_wrt_ground,air_pressure_at_mean_sea_level,platform_orientation
2018-05-10 23:40,50.6304183333333,-96.9807766666667,1.7,3.0,123,994.79,5.2,41,7.01,0.0,1022.43,38.0
2018-05-10 23:50,50.6304183333333,-96.9807666666667,2.9,3.7,92,994.68,5.4,36,6.81,0.0,1022.27,38.0
2018-05-11 00:00,50.6304166666667,-96.9807616666667,3.3,4.4,76,994.60,5.3,40,6.60,0.0,1022.19,360.0
2018-05-11 00:10,50.6304166666667,-96.9807633333333,3.2,4.3,55,994.52,4.2,38,6.53,0.0,1022.11,360.0
2018-05-11 00:20,50.6304183333333,-96.9807683333333,3.6,5.1,30,994.46,3.9,40,6.64,0.0,1022.06,360.0
2018-05-11 00:30,50.6304316666667,-96.9807683333333,4.8,5.2,15,994.36,3.7,43,6.60,0.0,1022.00,360.0
2018-05-11 00:40,50.6304416666667,-96.980775,3.1,4.4,19,994.41,4.1,38,6.45,0.0,1022.03,360.0
2018-05-11 00:50,50.6304433333333,-96.98077,1.1,3.6,126,994.46,4.7,37,6.60,0.0,1022.10,360.0
2018-05-11 01:00,50.6304433333333,-96.9807716666667,1.7,2.7,97,994.30,5.3,37,6.91,0.0,1021.85,336.5
2018-05-11 01:10,50.6304416666667,-96.9807683333333,0.3,1.9,58,994.29,6.3,32,6.78,0.0,1021.81,336.5
2018-05-11 01:20,50.6303916666667,-96.9807666666667,0.8,1.8,55,994.24,6.0,32,6.49,0.0,1021.78,336.5
2018-05-11 01:30,50.630425,-96.9807816666667,0.9,1.4,41,994.26,5.1,35,6.40,0.0,1021.78,336.5
2018-05-11 01:40,50.6304233333333,-96.9807766666667,1.0,1.6,31,994.25,4.2,37,6.33,0.0,1021.80,336.5
2018-05-11 01:50,50.6304133333333,-96.98073,2.0,3.6,12,994.22,3.5,38,6.28,0.0,1021.81,336.5
2018-05-11 02:00,50.630415,-96.980765,3.1,4.1,32,994.14,3.2,36,6.29,0.0,1021.80,360.0
2018-05-11 02:10,50.630415,-96.980765,1.4,2.4,18,994.20,2.9,38,6.30,0.0,1021.89,360.0
2018-05-11 02:20,50.63042,-96.9807583333333,0.3,1.4,167,994.31,2.6,43,6.32,0.0,1022.03,360.0
2018-05-11 02:30,50.6304166666667,-96.9807483333333,1.3,2.4,227,994.42,2.3,45,6.30,0.0,1022.14,360.0
2018-05-11 02:40,50.6304116666667,-96.9807566666667,0.2,1.6,335,994.42,2.6,43,6.30,0.0,1022.09,360.0
2018-05-11 02:50,50.6303883333333,-96.980775,2.0,2.6,13,994.36,2.9,43,6.31,0.0,1021.99,360.0
2018-05-11 03:00,50.6304083333333,-96.9807783333333,2.2,3.0,12,994.41,2.9,41,6.48,0.0,1021.99,253.2
2018-05-11 03:10,50.630425,-96.9807733333333,3.6,4.2,12,994.41,2.8,40,6.82,0.0,1022.01,253.2
2018-05-11 03:20,50.6304133333333,-96.9807766666667,4.2,4.6,21,994.40,2.6,41,6.91,0.0,1022.05,253.2
2018-05-11 03:30,50.6304,-96.9807833333333,4.0,4.4,14,994.38,2.5,41,6.80,0.0,1022.08,253.2
2018-05-11 03:40,50.6304083333333,-96.980775,4.6,5.4,21,994.28,2.4,42,6.78,0.0,1022.01,253.2
2018-05-11 03:50,50.63041,-96.9807733333333,4.0,5.0,23,994.30,2.4,41,6.96,0.0,1022.06,253.2
2018-05-11 04:00,50.63043,-96.9807633333333,2.9,3.6,20,994.33,2.4,42,7.11,0.0,1022.10,156.5
2018-05-11 04:10,50.63042,-96.9807733333333,2.3,4.0,351,994.27,2.4,44,7.20,0.0,1022.05,156.5
2018-05-11 04:20,50.63042,-96.9807733333333,3.2,4.0,360,994.18,2.3,44,7.24,0.0,1021.98,156.5
2018-05-11 04:30,50.6304216666667,-96.9807733333333,3.4,4.2,8,994.13,2.1,46,7.26,0.0,1021.92,156.5
2018-05-11 04:40,50.630385,-96.9808,3.3,4.3,356,994.13,1.8,47,7.18,0.0,1021.93,156.5
2018-05-11 04:50,50.6304266666667,-96.9807916666667,2.9,3.8,347,994.15,1.8,48,7.16,0.0,1021.96,156.5
2018-05-11 05:00,50.6304283333333,-96.9807333333333,4.5,5.1,7,994.05,1.6,49,7.17,0.0,1021.86,57.7
2018-05-11 05:10,50.6304616666667,-96.9807833333333,3.8,4.6,4,994.16,1.5,49,7.19,0.0,1021.99,57.7
2018-05-11 05:20,50.6304333333333,-96.9807483333333,3.6,4.2,6,994.08,1.6,51,7.19,0.0,1021.90,57.7
2018-05-11 05:30,50.630425,-96.9807616666667,3.5,4.2,0,993.96,1.8,50,7.18,0.0,1021.78,57.7
2018-05-11 05:40,50.6304216666667,-96.9807616666667,1.4,3.2,26,993.91,1.8,50,7.14,0.0,1021.74,57.7
2018-05-11 05:50,50.6304166666667,-96.9807616666667,0.8,1.9,358,994.02,1.6,52,7.03,0.0,1021.85,57.7
2018-05-11 06:00,50.6304133333333,-96.9807666666667,0.7,2.1,219,994.14,1.4,57,7.08,0.0,1021.98,66.4
2018-05-11 06:10,50.6304,-96.9807833333333,1.1,1.8,204,994.27,0.2,61,7.08,0.0,1022.18,66.4
2018-05-11 06:20,50.6304016666667,-96.980775,0.7,1.4,204,994.25,0.0,61,7.08,0.0,1022.18,66.4
2018-05-11 06:30,50.6303983333333,-96.980775,0.8,1.4,267,994.17,0.1,61,7.06,0.0,1022.11,66.4
2018-05-11 06:40,50.6303933333333,-96.9807716666667,0.7,2.4,237,994.27,0.0,61,7.02,0.0,1022.22,66.4
2018-05-11 06:50,50.6303916666667,-96.9807683333333,1.8,2.9,252,994.37,-0.5,58,6.94,0.0,1022.36,66.4
2018-05-11 07:00,50.6304116666667,-96.98077,1.3,2.0,244,994.26,-0.6,59,6.89,0.0,1022.26,142.0
2018-05-11 07:10,50.6304083333333,-96.9807683333333,0.1,0.8,226,994.10,-0.5,63,6.81,0.0,1022.08,142.0
2018-05-11 07:20,50.63041,-96.9807683333333,1.3,3.4,241,994.10,-0.4,62,6.84,0.0,1022.07,142.0
2018-05-11 07:30,50.6304333333333,-96.9807766666667,3.5,4.3,250,994.20,-0.9,57,6.82,0.0,1022.20,142.0
2018-05-11 07:40,50.6304333333333,-96.9807583333333,3.5,4.4,254,994.18,-1.2,57,6.84,0.0,1022.20,142.0
2018-05-11 07:50,50.6304266666667,-96.9807533333333,3.1,4.4,259,994.15,-1.3,59,6.86,0.0,1022.19,142.0
2018-05-11 08:00,50.63044,-96.98078,2.7,4.3,258,994.19,-1.4,59,6.83,0.0,1022.29,299.1
2018-05-11 08:10,50.6304166666667,-96.980745,2.5,3.4,260,994.17,-1.2,59,6.84,0.0,1022.27,299.1
2018-05-11 08:20,50.6304216666667,-96.9807566666667,2.0,3.3,259,994.15,-1.0,59,6.88,0.0,1022.24,299.1
2018-05-11 08:30,50.63043,-96.9807566666667,4.4,6.1,277,994.10,-1.1,57,6.89,0.0,1022.20,299.1
2018-05-11 08:40,50.6304316666667,-96.9807616666667,5.0,5.8,279,994.14,-1.4,57,6.83,0.0,1022.28,299.1
2018-05-11 08:50,50.6304316666667,-96.9807616666667,5.6,6.6,279,994.25,-1.4,57,6.81,0.0,1022.40,299.1
2018-05-11 09:00,50.6304366666667,-96.9807083333333,5.4,6.6,288,994.18,-1.3,57,6.79,0.0,1022.31,61.9
2018-05-11 09:10,50.630435,-96.9807483333333,5.9,6.8,292,994.14,-0.9,56,6.81,0.0,1022.25,61.9
2018-05-11 09:20,50.6304366666667,-96.980755,3.1,5.1,314,994.05,-0.4,57,6.83,0.0,1022.16,61.9
2018-05-11 09:30,50.6304383333333,-96.9807533333333,2.0,3.1,315,994.07,0.2,57,6.82,0.0,1022.16,61.9
2018-05-11 09:40,50.6304383333333,-96.980755,0.6,2.5,344,994.11,0.5,59,6.82,0.0,1022.19,61.9
2018-05-11 09:50,50.63045,-96.9807466666667,0.9,2.0,332,994.12,0.0,58,6.81,0.0,1022.23,61.9
2018-05-11 10:00,50.6304283333333,-96.9807633333333,0.8,1.5,277,994.08,-0.0,60,6.80,0.0,1022.18,38.0
2018-05-11 10:10,50.6304483333333,-96.9807466666667,0.0,0.5,0,994.05,0.2,58,6.79,0.0,1022.13,38.0
2018-05-11 10:20,50.6304466666667,-96.9807533333333,0.5,1.6,353,993.91,0.2,58,6.75,0.0,1021.99,38.0
2018-05-11 10:30,50.6304366666667,-96.980755,0.4,1.5,193,993.82,-0.1,62,6.69,0.0,1021.93,38.0
2018-05-11 10:40,50.630435,-96.9807516666667,0.8,1.7,211,993.68,-0.3,66,6.68,0.0,1021.80,38.0
2018-05-11 10:50,50.6304366666667,-96.980755,0.0,0.7,0,993.57,-0.1,66,6.68,0.0,1021.66,38.0
2018-05-11 11:00,50.6304366666667,-96.980755,1.8,2.7,191,993.56,-0.3,65,6.68,0.0,1021.64,107.7
2018-05-11 11:10,50.63044,-96.9807566666667,0.3,1.2,209,993.49,-0.0,63,6.68,0.0,1021.54,107.7
2018-05-11 11:20,50.63044,-96.9807583333333,0.1,0.6,47,993.55,0.8,63,6.67,0.0,1021.52,107.7
2018-05-11 11:30,50.63044,-96.98076,0.1,0.7,73,993.59,1.0,64,6.64,0.0,1021.54,107.7
2018-05-11 11:40,50.63044,-96.98076,0.9,1.8,167,993.65,0.4,64,6.58,0.0,1021.65,107.7
2018-05-11 11:50,50.6304383333333,-96.98076,0.3,1.0,64,993.72,0.8,64,6.48,0.0,1021.71,107.7
2018-05-11 12:00,50.63044,-96.9807583333333,1.5,2.0,68,993.76,0.7,67,6.44,0.0,1021.74,278.9
2018-05-11 12:10,50.6304,-96.9807616666667,1.8,2.2,43,993.66,0.3,75,6.41,0.0,1021.66,278.9
2018-05-11 12:20,50.63041,-96.9807583333333,1.7,2.2,25,993.74,0.2,78,6.28,0.0,1021.76,278.9
2018-05-11 12:30,50.630415,-96.9807616666667,0.5,1.9,17,993.80,0.3,85,6.25,0.0,1021.84,278.9
2018-05-11 12:40,50.6304466666667,-96.9807616666667,0.1,0.7,118,994.04,0.5,83,6.19,0.0,1022.05,278.9
2018-05-11 12:50,50.63044,-96.9807616666667,0.2,1.6,39,994.15,1.1,80,6.16,0.0,1022.15,278.9
2018-05-11 13:00,50.6304616666667,-96.9808016666667,2.3,2.9,8,994.03,0.7,83,6.32,0.0,1022.03,331.4
2018-05-11 13:10,50.6304383333333,-96.9807633333333,3.0,3.6,9,993.89,0.6,86,6.32,0.0,1021.85,331.4
2018-05-11 13:20,50.6304366666667,-96.9807616666667,2.6,3.3,19,993.94,0.7,88,6.19,0.0,1021.89,331.4
2018-05-11 13:30,50.63042,-96.9807633333333,2.0,2.4,44,994.05,0.8,89,6.22,0.0,1022.03,331.4
2018-05-11 13:40,50.6304266666667,-96.9807683333333,2.2,2.6,62,994.11,0.9,89,6.33,0.0,1022.06,331.4
2018-05-11 13:50,50.6304283333333,-96.9807716666667,3.4,4.3,53,994.14,0.8,92,6.37,0.0,1022.10,331.4
2018-05-11 14:00,50.6304266666667,-96.9807733333333,5.0,6.1,55,994.05,0.7,98,6.35,0.0,1022.04,216.6
2018-05-11 14:10,50.6304283333333,-96.9807733333333,3.4,6.2,47,994.14,0.6,99,6.26,0.0,1022.14,216.6
2018-05-11 14:20,50.6304283333333,-96.9807683333333,1.2,1.9,36,994.34,0.9,99,6.19,0.0,1022.32,216.6
2018-05-11 14:30,50.6304216666667,-96.9807733333333,2.9,3.7,65,994.27,1.1,99,6.12,0.0,1022.23,216.6
2018-05-11 14:40,50.6304216666667,-96.980775,3.3,3.8,58,994.18,1.0,99,6.05,0.0,1022.11,216.6
2018-05-11 14:50,50.6304216666667,-96.980775,2.8,3.8,61,994.17,1.1,99,6.02,0.0,1022.11,216.6
2018-05-11 15:00,50.63042,-96.980775,4.1,4.6,57,994.09,1.1,99,5.99,0.0,1022.04,194.5
2018-05-11 15:10,50.6303933333333,-96.9807866666667,4.2,5.0,61,994.05,1.1,99,5.97,0.0,1022.00,194.5
2018-05-11 15:20,50.6304183333333,-96.9807883333333,4.8,5.9,67,993.99,1.2,99,5.95,0.0,1021.92,194.5
2018-05-11 15:30,50.6304216666667,-96.9807783333333,4.6,5.5,81,994.09,2.0,93,5.90,0.0,1021.98,194.5
2018-05-11 15:40,50.630425,-96.980775,5.1,5.8,76,994.14,1.9,95,5.88,0.0,1022.03,194.5
2018-05-11 15:50,50.630425,-96.9807716666667,4.5,5.3,79,994.19,2.1,93,5.86,0.0,1022.09,194.5
2018-05-11 16:00,50.6304233333333,-96.9807683333333,4.8,5.6,81,994.13,2.5,90,5.85,0.0,1022.01,145.6
2018-05-11 16:10,50.6304233333333,-96.9807683333333,4.6,5.8,85,994.11,2.7,89,5.81,0.0,1021.97,145.6
2018-05-11 16:20,50.6304483333333,-96.980795,3.3,4.1,89,994.17,3.5,83,5.78,0.0,1021.98,145.6
2018-05-11 16:30,50.6304266666667,-96.9807683333333,4.0,4.3,81,994.19,3.4,86,5.76,0.0,1022.00,145.6
2018-05-11 16:40,50.63043,-96.980775,3.8,4.2,74,994.21,2.3,94,5.78,0.0,1022.07,145.6
2018-05-11 16:50,50.630435,-96.9807666666667,4.0,4.4,75,994.18,1.9,98,5.81,0.0,1022.06,145.6
2018-05-11 17:00,50.6304383333333,-96.9807666666667,3.1,4.0,67,994.11,1.8,99,5.85,0.0,1022.00,360.0
2018-05-11 17:10,50.630435,-96.98077,3.1,3.6,62,994.11,1.7,99,5.85,0.0,1022.00,360.0
2018-05-11 17:20,50.6304366666667,-96.980795,2.7,3.3,63,994.08,1.6,99,5.81,0.0,1021.94,360.0
2018-05-11 17:30,50.6304283333333,-96.98077,2.5,3.0,86,994.14,2.3,91,5.81,0.0,1021.96,360.0
2018-05-11 17:40,50.630425,-96.9807733333333,1.6,2.4,90,994.15,2.9,82,5.79,0.0,1021.93,360.0
2018-05-11 17:50,50.630425,-96.9807733333333,2.0,2.6,75,994.12,2.9,81,5.75,0.0,1021.89,360.0
2018-05-11 18:00,50.6304233333333,-96.9807716666667,1.5,2.2,75,994.08,2.9,63,5.70,0.0,1021.83,360.0
2018-05-11 18:10,50.6304233333333,-96.98077,1.7,2.2,74,993.98,3.2,58,5.70,0.0,1021.68,360.0
2018-05-11 18:20,50.630415,-96.9807833333333,0.9,1.4,90,994.00,4.4,47,5.80,0.0,1021.64,360.0
2018-05-11 18:30,50.6304166666667,-96.9807733333333,1.9,2.8,75,993.90,5.0,44,5.90,0.0,1021.56,360.0
2018-05-11 18:40,50.6304216666667,-96.98077,2.6,3.0,64,993.74,3.7,54,5.94,0.0,1021.48,360.0
2018-05-11 18:50,50.6304416666667,-96.9807266666667,2.7,3.0,54,993.68,3.5,52,5.90,0.0,1021.44,360.0
2018-05-11 19:00,50.630435,-96.9807733333333,2.6,3.3,35,993.66,3.1,65,5.82,0.0,1021.45,318.7
2018-05-11 19:10,50.63043,-96.98077,2.8,3.4,43,993.57,3.4,62,5.87,0.0,1021.34,318.7
2018-05-11 19:20,50.6304283333333,-96.980765,3.0,3.4,41,993.48,3.8,63,6.16,0.0,1021.19,318.7
2018-05-11 19:30,50.630445,-96.98071,3.1,3.6,47,993.44,4.1,58,6.26,0.0,1021.10,318.7
2018-05-11 19:40,50.6304333333333,-96.9807483333333,2.7,3.3,45,993.40,4.3,58,6.20,0.0,1021.06,318.7
2018-05-11 19:50,50.6304333333333,-96.9807483333333,3.3,3.6,73,993.29,4.9,49,6.05,0.0,1020.90,318.7
2018-05-11 20:00,50.630455,-96.9807666666667,3.5,3.9,59,993.17,4.9,52,5.91,0.0,1020.77,38.0
2018-05-11 20:10,50.6304316666667,-96.980755,3.5,4.0,44,993.06,4.3,63,5.80,0.0,1020.63,38.0
2018-05-11 20:20,50.63043,-96.980755,4.2,4.6,49,992.96,4.4,54,5.94,0.0,1020.49,38.0
2018-05-11 20:30,50.6304316666667,-96.980755,4.2,5.3,35,992.87,4.4,63,6.00,0.0,1020.46,38.0
2018-05-11 20:40,50.6304316666667,-96.98074,5.2,5.8,22,992.82,4.1,66,5.92,0.0,1020.43,38.0
2018-05-11 20:50,50.6304383333333,-96.98075,5.1,5.6,34,992.75,4.2,59,5.87,0.0,1020.38,38.0
2018-05-11 21:00,50.63044,-96.9807516666667,5.0,6.1,20,992.69,4.1,66,5.81,0.0,1020.31,41.2
2018-05-11 21:10,50.6304416666667,-96.9807516666667,5.3,6.1,29,992.59,4.3,58,5.79,0.0,1020.18,41.2
2018-05-11 21:20,50.6304416666667,-96.980755,5.4,6.2,33,992.55,4.2,59,5.87,0.0,1020.12,41.2
2018-05-11 21:30,50.6304433333333,-96.9807583333333,5.7,6.8,46,992.47,4.4,55,6.06,0.0,1020.02,41.2
2018-05-11 21:40,50.6304,-96.980785,6.3,6.9,54,992.39,4.3,57,6.17,0.0,1019.92,41.2
2018-05-11 21:50,50.630415,-96.980775,6.2,6.7,64,992.33,4.9,46,6.13,0.0,1019.82,41.2
2018-05-11 22:00,50.6304133333333,-96.9807783333333,6.3,7.0,79,992.31,6.1,33,6.09,0.0,1019.77,212.1
2018-05-11 22:10,50.6304416666667,-96.98076,4.5,5.9,94,992.27,6.8,36,6.05,0.0,1019.68,212.1
2018-05-11 22:20,50.630435,-96.9807516666667,5.3,7.1,103,992.25,6.6,43,5.99,0.0,1019.68,212.1
2018-05-11 22:30,50.6304333333333,-96.9807516666667,5.9,6.9,108,992.26,5.6,50,5.94,0.0,1019.75,212.1
2018-05-11 22:40,50.6304316666667,-96.9807566666667,7.4,8.3,108,992.18,5.4,49,5.92,0.0,1019.68,212.1
2018-05-11 22:50,50.63043,-96.9807566666667,8.0,8.3,109,992.13,5.9,43,5.89,0.0,1019.60,212.1
2018-05-11 23:00,50.6304316666667,-96.9807583333333,8.3,10.1,103,992.08,6.2,42,5.85,0.0,1019.53,152.4
2018-05-11 23:10,50.6304333333333,-96.98076,6.9,9.7,108,992.05,6.0,49,5.81,0.0,1019.51,152.4
2018-05-11 23:20,50.6304316666667,-96.9807583333333,2.8,6.5,145,991.99,5.6,55,5.80,0.0,1019.46,152.4
2018-05-11 23:30,50.6304333333333,-96.9807833333333,3.4,5.3,140,991.88,5.4,55,5.80,0.0,1019.36,152.4
2018-05-11 23:40,50.6304216666667,-96.9807566666667,4.6,6.3,125,991.90,5.4,50,5.79,0.0,1019.35,152.4
